Location: Bonn
(50.7330°N, 7.1000°E)
Time: 13:19:51
(UTC+02:00)

Iridium 67 - Visible Passes

Search period start: 20 October 2014 00:00
Search period end: 29 October 2014 23:00
Orbit: 776 x 779 km, 86.4° (Epoch: 19 October)

Date Brightness Start Highest point End Pass type
(mag) Time Alt. Az. Time Alt. Az. Time Alt. Az.
20 Oct 7.3 04:08:27 10° NNE 04:12:55 28° ENE 04:14:15 25° E visible
20 Oct 5.7 05:48:53 10° NNW 05:53:53 47° W 05:54:35 44° WSW visible
21 Oct 8.0 03:35:36 10° NNE 03:39:01 17° ENE 03:39:15 17° ENE visible
21 Oct 5.6 05:15:12 10° N 05:19:37 64° NNW 05:19:37 64° NNW visible
21 Oct 7.2 06:58:00 10° NW 07:00:00 13° WNW 07:00:00 13° WNW visible
22 Oct 8.5 03:04:05 10° NE 03:04:40 10° ENE 03:04:40 10° ENE visible
22 Oct 6.6 04:41:40 10° N 04:45:04 39° NNE 04:45:04 39° NNE visible
22 Oct 7.0 06:23:16 10° NNW 06:25:28 18° NW 06:25:28 18° NW visible
22 Oct 8.5 19:28:06 10° W 19:30:30 13° WNW 19:32:56 10° NW visible
23 Oct 7.5 04:08:20 10° N 04:10:45 24° NNE 04:10:45 24° NNE visible
23 Oct 7.0 05:49:10 10° NNW 05:51:09 21° NNW 05:51:09 21° NNW visible
23 Oct 8.2 18:52:36 10° WSW 18:56:31 21° WNW 19:00:28 10° NNW visible
24 Oct 8.1 03:35:13 10° NNE 03:36:34 16° NNE 03:36:34 16° NNE visible
24 Oct 7.3 05:15:22 10° N 05:16:59 20° NNW 05:16:59 20° NNW visible
25 Oct 7.7 04:41:44 10° N 04:42:55 17° N 04:42:55 17° N visible
26 Oct 8.1 03:08:17 10° N 03:08:56 14° N 03:08:56 14° N visible
26 Oct 8.3 17:53:43 10° WSW 17:56:52 16° WNW 18:00:02 10° NNW visible
29 Oct 8.4 17:55:23 10° W 17:57:15 12° WNW 17:59:07 10° NW visible
